Home > Weather > Sunderland > Past weeks

Flag for United Kingdom Past Weather in Sunderland, England, United Kingdom — Yesterday and Last 2 Weeks

Now
48 °F

Fog.


Feels Like: 43 °F
Forecast: 48 / 52 °F
Wind: 14 mph from North

Location: Newcastle

Current Time: Jun 1, 2016 at 8:37:41 AM

Latest Report: Jun 1, 2016 at 7:50 AM


Visibility: 3 mi

Pressure: 30.36 "Hg

Humidity: 100%

Dew Point: 48 °F

Location of SunderlandLocation

Past Weather in Sunderland — Graph

°F

Sunderland Temperature Yesterday

Maximum temperature yesterday: 52 °F (at 1:50 PM)
Minimum temperature yesterday: 48 °F (at 12:50 AM)
Average temperature yesterday: 50 °F

High & Low Weather Summary for the Past Weeks

 TemperatureHumidityPressure
High64 °F (May 17, 2:50 PM)100% (May 25, 10:50 PM)30.33 "Hg (May 25, 10:50 PM)
Low39 °F (May 24, 2:50 AM)43% (May 22, 3:20 PM)29.53 "Hg (May 18, 4:20 AM)
Average52 °F81%29.96 "Hg
* Reported May 17 7:20 AM — Jun 1 7:20 AM, Sunderland, Weather by CustomWeather, © 2016

Note: Actual official high and low records may vary slightly from our data, if they occured in-between our weather recording intervals... More about our weather records

Advertising

Sunderland Weather History for the Previous 24 Hours

Scroll right to see more
 ConditionsComfort  
Time TempWeatherWind HumidityBarometerVisibility
7:20 AM
Wed, Jun 1
48 °FFog.12 mph100%30.33 "Hg2 mi
6:50 AM48 °FFog.14 mph100%30.33 "Hg3 mi
6:20 AM48 °FPartly sunny.15 mph100%30.33 "Hg4 mi
5:50 AM48 °FFog.12 mph100%30.33 "Hg3 mi
5:20 AM48 °FFog.14 mph100%30.33 "Hg4 mi
4:50 AM48 °FFog.16 mph100%30.33 "Hg2 mi
4:20 AM48 °FFog.17 mph100%30.30 "Hg2 mi
3:50 AM48 °FFog.15 mph100%30.33 "Hg2 mi
3:20 AM48 °FFog.17 mph100%30.33 "Hg3 mi
2:50 AM48 °FFog.14 mph100%30.30 "Hg3 mi
2:20 AM48 °FFog.15 mph100%30.30 "Hg3 mi
1:50 AM48 °FFog.15 mph100%30.30 "Hg2 mi
1:20 AM50 °FLight rain. Fog.14 mph94%30.30 "Hg2 mi
12:50 AM50 °FFog.15 mph94%30.30 "Hg2 mi
12:20 AM50 °FFog.14 mph94%30.30 "Hg2 mi
11:50 PM
Tue, May 31
50 °FFog.15 mph94%30.30 "Hg3 mi
11:20 PM50 °FFog.17 mph94%30.30 "Hg2 mi
10:50 PM48 °FFog.13 mph94%30.30 "Hg2 mi
10:20 PM48 °FFog.14 mph94%30.30 "Hg2 mi
9:50 PM50 °FFog.16 mph88%30.30 "Hg2 mi
9:20 PM50 °FPartly sunny.15 mph88%30.27 "Hg4 mi
8:50 PM50 °FPartly sunny.15 mph88%30.27 "Hg5 mi
8:20 PM50 °FPartly sunny.18 mph88%30.27 "Hg5 mi
7:50 PM50 °FPartly sunny.17 mph88%30.27 "Hg5 mi
7:20 PM50 °FPartly sunny.15 mph88%30.27 "HgN/A
6:50 PM50 °FPartly sunny.16 mph88%30.27 "HgN/A
6:20 PM50 °FPartly sunny.17 mph88%30.24 "HgN/A
5:50 PM50 °FPartly sunny.18 mph88%30.24 "HgN/A
5:20 PM50 °FPartly sunny.20 mph88%30.24 "HgN/A
4:50 PM50 °FPartly sunny.18 mph88%30.24 "HgN/A
4:20 PM50 °FPartly sunny.15 mph88%30.24 "HgN/A
3:50 PM50 °FPartly sunny.17 mph88%30.24 "HgN/A
3:20 PM50 °FPartly sunny.17 mph88%30.24 "HgN/A
2:50 PM50 °FPartly sunny.20 mph88%30.24 "HgN/A
2:20 PM52 °FPartly sunny.17 mph82%30.24 "HgN/A
1:50 PM52 °FPartly sunny.18 mph82%30.24 "HgN/A
1:20 PM50 °FPartly sunny.18 mph88%30.21 "HgN/A
12:50 PM50 °FPartly sunny.17 mph88%30.24 "HgN/A
12:20 PM50 °FPartly sunny.17 mph88%30.24 "HgN/A
11:50 AM50 °FPartly sunny.17 mph88%30.24 "HgN/A
11:20 AM50 °FPartly sunny.21 mph88%30.21 "HgN/A
10:50 AM50 °FPartly sunny.21 mph88%30.21 "HgN/A
10:20 AM50 °FPartly sunny.20 mph88%30.21 "HgN/A
9:50 AM50 °FPartly sunny.17 mph88%30.21 "HgN/A
9:20 AM50 °FPartly sunny.20 mph88%30.21 "HgN/A
8:50 AM50 °FPartly sunny.16 mph88%30.21 "HgN/A
8:20 AM50 °FPartly sunny.17 mph88%30.21 "HgN/A
Weather by CustomWeather, © 2016

See weather overviewHow to use our weather pages